Time,TemperatureF,DewpointF,PressureIn,WindDirection,WindDirectionDegrees,WindSpeedMPH,WindSpeedGustMPH,Humidity,HourlyPrecipIn,Conditions,Clouds,dailyrainin,SolarRadiationWatts/m^2,SoftwareType,DateUTC
2013-02-28 00:00:00,35.1,33.5,29.50,NW,326,4.0,9.0,94,0.01,,OVC021,1.32,0.00,VWS V14.01,2013-02-28 05:00:00,
2013-02-28 00:05:00,35.0,33.5,29.50,NW,313,5.0,8.0,94,0.01,,OVC021,0.00,0.00,VWS V14.01,2013-02-28 05:05:00,
2013-02-28 00:10:00,34.9,33.3,29.50,NW,315,5.0,9.0,94,0.01,,OVC021,0.00,0.00,VWS V14.01,2013-02-28 05:10:00,
2013-02-28 00:15:00,34.8,33.2,29.50,NNW,336,3.0,8.0,94,0.01,,OVC021,0.00,0.00,VWS V14.01,2013-02-28 05:15:00,
2013-02-28 00:20:00,34.8,33.2,29.50,NW,322,4.0,9.0,94,0.01,,OVC021,0.00,0.00,VWS V14.01,2013-02-28 05:20:00,
2013-02-28 00:25:00,34.8,33.2,29.50,NW,323,4.0,6.0,94,0.01,,OVC021,0.00,0.00,VWS V14.01,2013-02-28 05:25:00,
2013-02-28 00:30:00,34.8,33.2,29.50,NNW,334,4.0,6.0,94,0.00,,OVC021,0.00,0.00,VWS V14.01,2013-02-28 05:30:00,
2013-02-28 00:35:00,34.7,33.2,29.50,NW,325,6.0,6.0,94,0.00,,OVC021,0.00,0.00,VWS V14.01,2013-02-28 05:35:00,
2013-02-28 00:40:00,34.7,33.2,29.50,NW,309,3.0,8.0,94,0.00,,OVC021,0.00,0.00,VWS V14.01,2013-02-28 05:40:00,
2013-02-28 00:45:00,34.6,33.0,29.51,WNW,295,5.0,7.0,94,0.00,,OVC021,0.00,0.00,VWS V14.01,2013-02-28 05:45:00,
2013-02-28 00:50:00,34.6,33.0,29.51,WNW,302,4.0,8.0,94,0.00,,OVC021,0.00,0.00,VWS V14.01,2013-02-28 05:50:00,
2013-02-28 00:55:00,34.5,33.0,29.50,NW,306,2.0,9.0,94,0.01,,OVC021,0.01,0.00,VWS V14.01,2013-02-28 05:55:00,
2013-02-28 01:00:00,34.4,32.9,29.50,NW,307,4.0,9.0,94,0.01,,OVC021,0.01,0.00,VWS V14.01,2013-02-28 06:00:00,
2013-02-28 01:05:00,34.3,32.8,29.51,NW,321,5.0,10.0,94,0.01,,OVC021,0.01,0.00,VWS V14.01,2013-02-28 06:05:00,
2013-02-28 01:10:00,34.3,32.8,29.51,NNW,333,5.0,11.0,94,0.01,,OVC021,0.01,0.00,VWS V14.01,2013-02-28 06:10:00,
2013-02-28 01:15:00,34.2,32.7,29.50,NW,316,3.0,7.0,94,0.01,,OVC021,0.01,0.00,VWS V14.01,2013-02-28 06:15:00,
2013-02-28 01:20:00,34.2,32.7,29.50,NW,311,3.0,8.0,94,0.01,,OVC021,0.01,0.00,VWS V14.01,2013-02-28 06:20:00,
2013-02-28 01:25:00,34.1,32.6,29.50,NW,310,3.0,6.0,94,0.01,,OVC021,0.01,0.00,VWS V14.01,2013-02-28 06:25:00,
2013-02-28 01:30:00,34.1,32.6,29.51,NW,314,3.0,7.0,94,0.01,,OVC021,0.01,0.00,VWS V14.01,2013-02-28 06:30:00,
2013-02-28 01:35:00,34.1,32.6,29.51,NW,307,2.0,5.0,94,0.01,,OVC021,0.01,0.00,VWS V14.01,2013-02-28 06:35:00,
2013-02-28 01:40:00,34.1,32.6,29.51,WNW,288,2.0,5.0,94,0.01,,OVC021,0.01,0.00,VWS V14.01,2013-02-28 06:40:00,
2013-02-28 01:45:00,34.1,32.6,29.51,WNW,288,3.0,5.0,94,0.01,,OVC021,0.01,0.00,VWS V14.01,2013-02-28 06:45:00,
2013-02-28 01:50:00,34.1,32.6,29.51,WNW,289,0.0,4.0,94,0.01,,OVC021,0.01,0.00,VWS V14.01,2013-02-28 06:50:00,
2013-02-28 01:55:00,34.0,32.5,29.51,WNW,292,2.0,4.0,94,0.01,,OVC021,0.01,0.00,VWS V14.01,2013-02-28 06:55:00,
2013-02-28 02:00:00,34.0,32.5,29.51,NW,321,6.0,6.0,94,0.00,,OVC021,0.01,0.00,VWS V14.01,2013-02-28 07:00:00,
2013-02-28 02:05:00,34.0,32.5,29.51,WNW,293,5.0,6.0,94,0.00,,OVC021,0.01,0.00,VWS V14.01,2013-02-28 07:05:00,
2013-02-28 02:10:00,33.9,32.4,29.51,NW,304,3.0,6.0,94,0.00,,OVC021,0.01,0.00,VWS V14.01,2013-02-28 07:10:00,
2013-02-28 02:15:00,33.9,32.4,29.51,NNW,328,2.0,5.0,94,0.00,,OVC021,0.01,0.00,VWS V14.01,2013-02-28 07:15:00,
2013-02-28 02:20:00,33.9,32.4,29.51,NW,318,3.0,6.0,94,0.00,,OVC021,0.01,0.00,VWS V14.01,2013-02-28 07:20:00,
2013-02-28 02:25:00,33.9,32.4,29.51,NW,315,3.0,4.0,94,0.00,,OVC021,0.01,0.00,VWS V14.01,2013-02-28 07:25:00,
2013-02-28 02:30:00,33.8,32.3,29.51,NW,315,4.0,4.0,94,0.00,,OVC021,0.01,0.00,VWS V14.01,2013-02-28 07:30:00,
2013-02-28 02:35:00,33.8,32.3,29.51,WNW,303,3.0,7.0,94,0.00,,OVC021,0.01,0.00,VWS V14.01,2013-02-28 07:35:00,
2013-02-28 02:40:00,33.8,32.3,29.51,West,280,2.0,4.0,94,0.00,,OVC021,0.01,0.00,VWS V14.01,2013-02-28 07:40:00,
2013-02-28 02:45:00,33.7,32.2,29.52,West,265,5.0,8.0,94,0.00,,OVC021,0.01,0.00,VWS V14.01,2013-02-28 07:45:00,
2013-02-28 02:50:00,33.7,32.2,29.52,West,274,3.0,6.0,94,0.00,,OVC021,0.01,0.00,VWS V14.01,2013-02-28 07:50:00,
2013-02-28 02:55:00,33.6,32.1,29.52,WNW,292,4.0,6.0,94,0.00,,OVC021,0.01,0.00,VWS V14.01,2013-02-28 07:55:00,
2013-02-28 03:00:00,33.6,32.1,29.52,West,265,5.0,6.0,94,0.00,,OVC021,0.01,0.00,VWS V14.01,2013-02-28 08:00:00,
2013-02-28 03:05:00,33.5,32.0,29.53,West,276,4.0,7.0,94,0.00,,OVC021,0.01,0.00,VWS V14.01,2013-02-28 08:05:00,
2013-02-28 03:10:00,33.4,31.9,29.52,WNW,295,5.0,7.0,94,0.00,,OVC021,0.01,0.00,VWS V14.01,2013-02-28 08:10:00,
2013-02-28 03:15:00,33.3,31.8,29.52,NW,317,3.0,7.0,94,0.00,,OVC021,0.01,0.00,VWS V14.01,2013-02-28 08:15:00,
2013-02-28 03:20:00,33.2,31.7,29.52,NW,321,3.0,6.0,94,0.00,,OVC021,0.01,0.00,VWS V14.01,2013-02-28 08:20:00,
2013-02-28 03:25:00,33.2,31.7,29.52,NW,321,4.0,7.0,94,0.00,,OVC021,0.01,0.00,VWS V14.01,2013-02-28 08:25:00,
2013-02-28 03:30:00,33.1,31.6,29.52,WNW,292,3.0,6.0,94,0.00,,OVC021,0.01,0.00,VWS V14.01,2013-02-28 08:30:00,
2013-02-28 03:35:00,33.0,31.5,29.52,WNW,297,5.0,6.0,94,0.00,,OVC021,0.01,0.00,VWS V14.01,2013-02-28 08:35:00,
2013-02-28 03:40:00,33.0,31.5,29.52,WNW,288,6.0,6.0,94,0.00,,OVC021,0.01,0.00,VWS V14.01,2013-02-28 08:40:00,
2013-02-28 03:45:00,32.9,31.4,29.52,NW,308,2.0,6.0,94,0.00,,OVC021,0.01,0.00,VWS V14.01,2013-02-28 08:45:00,
2013-02-28 03:50:00,32.9,31.4,29.52,West,275,3.0,5.0,94,0.00,,OVC021,0.01,0.00,VWS V14.01,2013-02-28 08:50:00,
2013-02-28 03:55:00,32.8,31.3,29.52,West,276,1.0,6.0,94,0.00,,OVC021,0.01,0.00,VWS V14.01,2013-02-28 08:55:00,
2013-02-28 04:00:00,32.8,31.3,29.52,West,272,2.0,5.0,94,0.00,,OVC021,0.01,0.00,VWS V14.01,2013-02-28 09:00:00,
2013-02-28 04:05:00,32.7,31.2,29.52,West,272,2.0,4.0,94,0.00,,OVC021,0.01,0.00,VWS V14.01,2013-02-28 09:05:00,
2013-02-28 04:10:00,32.7,31.2,29.52,West,273,3.0,4.0,94,0.00,,OVC021,0.01,0.00,VWS V14.01,2013-02-28 09:10:00,
2013-02-28 04:15:00,32.6,31.1,29.52,West,273,0.0,4.0,94,0.00,,OVC021,0.01,0.00,VWS V14.01,2013-02-28 09:15:00,
2013-02-28 04:20:00,32.6,31.1,29.52,West,273,2.0,3.0,94,0.00,,OVC021,0.01,0.00,VWS V14.01,2013-02-28 09:20:00,
2013-02-28 04:25:00,32.5,31.0,29.52,West,273,2.0,3.0,94,0.00,,OVC021,0.01,0.00,VWS V14.01,2013-02-28 09:25:00,
2013-02-28 04:30:00,32.5,31.0,29.53,West,273,1.0,3.0,94,0.00,,OVC021,0.01,0.00,VWS V14.01,2013-02-28 09:30:00,
2013-02-28 04:35:00,32.5,31.0,29.53,West,272,3.0,4.0,94,0.00,,OVC021,0.01,0.00,VWS V14.01,2013-02-28 09:35:00,
2013-02-28 04:40:00,32.5,31.0,29.54,West,273,2.0,4.0,94,0.00,,OVC021,0.01,0.00,VWS V14.01,2013-02-28 09:40:00,
2013-02-28 04:45:00,32.5,31.0,29.53,West,273,2.0,3.0,94,0.00,,OVC021,0.01,0.00,VWS V14.01,2013-02-28 09:45:00,
2013-02-28 04:50:00,32.4,30.9,29.53,West,272,3.0,4.0,94,0.00,,OVC021,0.01,0.00,VWS V14.01,2013-02-28 09:50:00,
2013-02-28 04:55:00,32.4,30.9,29.53,West,273,2.0,3.0,94,0.00,,OVC021,0.01,0.00,VWS V14.01,2013-02-28 09:55:00,
2013-02-28 05:00:00,32.4,30.9,29.54,West,272,3.0,4.0,94,0.00,,OVC021,0.01,0.00,VWS V14.01,2013-02-28 10:00:00,
2013-02-28 05:05:00,32.4,30.9,29.54,West,273,3.0,3.0,94,0.00,,OVC021,0.01,0.00,VWS V14.01,2013-02-28 10:05:00,
2013-02-28 05:10:00,32.4,30.9,29.55,West,272,3.0,4.0,94,0.00,,OVC021,0.01,0.00,VWS V14.01,2013-02-28 10:10:00,
2013-02-28 05:15:00,32.4,30.9,29.55,West,273,2.0,4.0,94,0.00,,OVC021,0.01,0.00,VWS V14.01,2013-02-28 10:15:00,
2013-02-28 05:20:00,32.4,30.9,29.55,West,272,2.0,4.0,94,0.00,,OVC021,0.01,0.00,VWS V14.01,2013-02-28 10:20:00,
2013-02-28 05:25:00,32.4,30.9,29.55,West,273,2.0,4.0,94,0.00,,OVC021,0.01,0.00,VWS V14.01,2013-02-28 10:25:00,
2013-02-28 05:30:00,32.4,30.9,29.55,WNW,287,2.0,7.0,94,0.00,,OVC021,0.01,0.00,VWS V14.01,2013-02-28 10:30:00,
2013-02-28 05:35:00,32.4,30.9,29.55,WNW,282,3.0,5.0,94,0.00,,OVC021,0.01,0.00,VWS V14.01,2013-02-28 10:35:00,
2013-02-28 05:40:00,32.4,30.9,29.55,WNW,290,3.0,5.0,94,0.00,,OVC021,0.01,0.00,VWS V14.01,2013-02-28 10:40:00,
2013-02-28 05:45:00,32.3,30.8,29.55,West,277,3.0,5.0,94,0.00,,OVC021,0.01,0.00,VWS V14.01,2013-02-28 10:45:00,
2013-02-28 05:50:00,32.3,30.8,29.55,WNW,286,2.0,8.0,94,0.00,,OVC021,0.01,0.00,VWS V14.01,2013-02-28 10:50:00,
2013-02-28 05:55:00,32.3,30.8,29.55,WNW,296,3.0,6.0,94,0.00,,OVC021,0.01,0.00,VWS V14.01,2013-02-28 10:55:00,
2013-02-28 06:00:00,32.3,30.8,29.55,West,266,2.0,5.0,94,0.00,,OVC021,0.01,0.00,VWS V14.01,2013-02-28 11:00:00,
2013-02-28 06:03:00,32.3,30.8,29.55,WNW,294,2.0,5.0,94,0.00,,OVC021,0.01,0.00,VWS V14.01,2013-02-28 11:03:00,
2013-02-28 06:04:00,32.3,30.8,29.55,WNW,294,3.0,4.0,94,0.00,,OVC021,0.01,0.00,VWS V14.01,2013-02-28 11:04:00,
2013-02-28 06:05:00,32.3,30.8,29.55,WNW,287,2.0,4.0,94,0.00,,OVC021,0.01,0.00,VWS V14.01,2013-02-28 11:05:00,
2013-02-28 06:10:00,32.3,30.8,29.55,WNW,298,5.0,5.0,94,0.00,,OVC021,0.01,0.00,VWS V14.01,2013-02-28 11:10:00,
2013-02-28 06:15:00,32.3,30.8,29.55,WNW,300,4.0,4.0,94,0.00,,OVC021,0.01,0.00,VWS V14.01,2013-02-28 11:15:00,
2013-02-28 06:20:00,32.2,30.7,29.55,West,275,4.0,6.0,94,0.00,,OVC021,0.01,0.00,VWS V14.01,2013-02-28 11:20:00,
2013-02-28 06:25:00,32.2,30.7,29.55,West,275,1.0,4.0,94,0.00,,OVC021,0.01,0.00,VWS V14.01,2013-02-28 11:25:00,
2013-02-28 06:30:00,32.2,30.7,29.55,West,275,2.0,3.0,94,0.00,,OVC021,0.01,7.00,VWS V14.01,2013-02-28 11:30:00,
2013-02-28 06:35:00,32.2,30.7,29.56,West,281,3.0,4.0,94,0.00,,OVC021,0.01,9.00,VWS V14.01,2013-02-28 11:35:00,
2013-02-28 06:40:00,32.2,30.7,29.55,WNW,292,1.0,4.0,94,0.00,,OVC021,0.01,11.00,VWS V14.01,2013-02-28 11:40:00,
2013-02-28 06:45:00,32.3,30.8,29.56,WNW,292,2.0,2.0,94,0.00,,OVC021,0.01,12.00,VWS V14.01,2013-02-28 11:45:00,
2013-02-28 06:50:00,32.2,30.7,29.56,WNW,292,2.0,3.0,94,0.00,,OVC021,0.01,12.00,VWS V14.01,2013-02-28 11:50:00,
2013-02-28 06:51:00,32.3,30.8,29.55,WNW,292,0.0,3.0,94,0.00,,OVC021,0.01,14.00,VWS V14.01,2013-02-28 11:51:00,
2013-02-28 06:55:00,32.3,30.8,29.55,WNW,292,1.0,3.0,94,0.00,,OVC021,0.01,12.00,VWS V14.01,2013-02-28 11:55:00,
2013-02-28 06:56:00,32.3,30.8,29.56,NW,306,2.0,5.0,94,0.00,,OVC021,0.01,12.00,VWS V14.01,2013-02-28 11:56:00,
2013-02-28 07:00:00,32.3,30.8,29.56,NW,306,2.0,5.0,94,0.00,,OVC021,0.01,12.00,VWS V14.01,2013-02-28 12:00:00,
2013-02-28 07:01:00,32.3,30.8,29.56,NW,306,2.0,4.0,94,0.00,,OVC021,0.01,12.00,VWS V14.01,2013-02-28 12:01:00,
2013-02-28 07:05:00,32.3,30.8,29.56,NW,306,3.0,5.0,94,0.00,,OVC021,0.01,12.00,VWS V14.01,2013-02-28 12:05:00,
2013-02-28 07:06:00,32.3,30.8,29.55,NW,316,2.0,4.0,94,0.00,,OVC021,0.01,16.00,VWS V14.01,2013-02-28 12:06:00,
2013-02-28 07:10:00,32.2,30.7,29.55,NW,317,1.0,4.0,94,0.00,,OVC021,0.01,16.00,VWS V14.01,2013-02-28 12:10:00,
2013-02-28 07:11:00,32.3,30.8,29.56,NW,317,2.0,3.0,94,0.00,,OVC021,0.01,16.00,VWS V14.01,2013-02-28 12:11:00,
2013-02-28 07:15:00,32.3,30.8,29.56,NNW,327,2.0,5.0,94,0.00,,OVC021,0.01,18.00,VWS V14.01,2013-02-28 12:15:00,
2013-02-28 07:16:00,32.2,30.7,29.56,NNW,327,3.0,4.0,94,0.00,,OVC021,0.01,18.00,VWS V14.01,2013-02-28 12:16:00,
2013-02-28 07:20:00,32.2,30.7,29.56,NNW,327,4.0,4.0,94,0.00,,OVC021,0.01,19.00,VWS V14.01,2013-02-28 12:20:00,
2013-02-28 07:21:00,32.2,30.4,29.55,NNW,327,3.0,6.0,93,0.00,,OVC021,0.01,23.00,VWS V14.01,2013-02-28 12:21:00,
2013-02-28 07:25:00,32.2,30.4,29.55,NNW,327,2.0,6.0,93,0.00,,OVC021,0.01,26.00,VWS V14.01,2013-02-28 12:25:00,
2013-02-28 07:26:00,32.2,30.7,29.55,NNW,327,2.0,4.0,94,0.00,,OVC021,0.01,39.00,VWS V14.01,2013-02-28 12:26:00,
2013-02-28 07:30:00,32.2,30.7,29.55,NNW,327,2.0,4.0,94,0.00,,OVC021,0.01,47.00,VWS V14.01,2013-02-28 12:30:00,
2013-02-28 07:31:00,32.3,30.8,29.56,NNW,327,1.0,3.0,94,0.00,,OVC021,0.01,46.00,VWS V14.01,2013-02-28 12:31:00,
2013-02-28 07:35:00,32.3,30.8,29.57,NNW,327,0.0,3.0,94,0.00,,OVC021,0.01,60.00,VWS V14.01,2013-02-28 12:35:00,
2013-02-28 07:37:00,32.4,30.9,29.56,NW,326,2.0,3.0,94,0.00,,OVC021,0.01,44.00,VWS V14.01,2013-02-28 12:37:00,
2013-02-28 07:40:00,32.4,30.9,29.56,NNW,327,2.0,3.0,94,0.00,,OVC021,0.01,39.00,VWS V14.01,2013-02-28 12:40:00,
2013-02-28 07:42:00,32.5,30.7,29.56,WSW,255,4.0,5.0,93,0.00,,OVC021,0.01,40.00,VWS V14.01,2013-02-28 12:42:00,
2013-02-28 07:45:00,32.5,30.7,29.56,West,273,5.0,5.0,93,0.00,,OVC021,0.01,35.00,VWS V14.01,2013-02-28 12:45:00,
2013-02-28 07:47:00,32.5,30.7,29.56,West,259,5.0,6.0,93,0.00,,OVC021,0.01,30.00,VWS V14.01,2013-02-28 12:47:00,
2013-02-28 07:50:00,32.6,30.8,29.56,West,265,5.0,6.0,93,0.00,,OVC021,0.01,30.00,VWS V14.01,2013-02-28 12:50:00,
2013-02-28 07:52:00,32.6,30.8,29.56,WSW,252,3.0,5.0,93,0.00,,OVC021,0.01,42.00,VWS V14.01,2013-02-28 12:52:00,
2013-02-28 07:55:00,32.6,30.8,29.56,WSW,252,3.0,5.0,93,0.00,,OVC021,0.01,49.00,VWS V14.01,2013-02-28 12:55:00,
2013-02-28 07:57:00,32.6,30.8,29.56,West,275,2.0,5.0,93,0.00,,OVC021,0.01,69.00,VWS V14.01,2013-02-28 12:57:00,
2013-02-28 08:00:00,32.7,30.9,29.56,West,274,3.0,5.0,93,0.00,,OVC021,0.01,65.00,VWS V14.01,2013-02-28 13:00:00,
2013-02-28 08:02:00,32.8,31.0,29.56,West,269,1.0,4.0,93,0.00,,OVC021,0.01,91.00,VWS V14.01,2013-02-28 13:02:00,
2013-02-28 08:05:00,32.8,31.0,29.56,West,269,2.0,4.0,93,0.00,,OVC021,0.01,95.00,VWS V14.01,2013-02-28 13:05:00,
2013-02-28 08:07:00,32.9,31.1,29.56,West,269,2.0,2.0,93,0.00,,OVC021,0.01,116.00,VWS V14.01,2013-02-28 13:07:00,
2013-02-28 08:10:00,32.9,31.1,29.56,West,269,0.0,3.0,93,0.00,,OVC021,0.01,123.00,VWS V14.01,2013-02-28 13:10:00,
2013-02-28 08:12:00,33.0,31.2,29.57,West,269,2.0,2.0,93,0.00,,OVC021,0.01,153.00,VWS V14.01,2013-02-28 13:12:00,
2013-02-28 08:15:00,33.1,31.3,29.57,West,269,2.0,3.0,93,0.00,,OVC021,0.01,156.00,VWS V14.01,2013-02-28 13:15:00,
2013-02-28 08:17:00,33.2,31.4,29.56,West,274,4.0,5.0,93,0.00,,OVC021,0.01,176.00,VWS V14.01,2013-02-28 13:17:00,
2013-02-28 08:20:00,33.2,31.4,29.56,WNW,288,3.0,5.0,93,0.00,,OVC021,0.01,162.00,VWS V14.01,2013-02-28 13:20:00,
2013-02-28 08:22:00,33.3,31.5,29.56,WSW,256,3.0,4.0,93,0.00,,OVC021,0.01,202.00,VWS V14.01,2013-02-28 13:22:00,
2013-02-28 08:25:00,33.3,31.5,29.56,WSW,255,2.0,5.0,93,0.00,,OVC021,0.01,202.00,VWS V14.01,2013-02-28 13:25:00,
2013-02-28 08:28:00,33.5,31.4,29.56,NW,317,0.0,5.0,92,0.00,,OVC021,0.01,176.00,VWS V14.01,2013-02-28 13:28:00,
2013-02-28 08:30:00,33.5,31.4,29.56,NW,319,0.0,5.0,92,0.00,,OVC021,0.01,176.00,VWS V14.01,2013-02-28 13:30:00,
2013-02-28 08:33:00,33.7,31.6,29.56,WSW,250,4.0,5.0,92,0.00,,OVC021,0.01,160.00,VWS V14.01,2013-02-28 13:33:00,
2013-02-28 08:35:00,33.7,31.6,29.56,WSW,251,3.0,5.0,92,0.00,,OVC021,0.01,160.00,VWS V14.01,2013-02-28 13:35:00,
2013-02-28 08:38:00,33.8,31.7,29.57,WSW,248,6.0,6.0,92,0.00,,OVC021,0.01,149.00,VWS V14.01,2013-02-28 13:38:00,
2013-02-28 08:40:00,33.8,31.7,29.57,WSW,247,5.0,7.0,92,0.00,,OVC021,0.01,149.00,VWS V14.01,2013-02-28 13:40:00,
2013-02-28 08:43:00,33.8,31.5,29.57,SW,223,5.0,6.0,91,0.00,,OVC021,0.01,125.00,VWS V14.01,2013-02-28 13:43:00,
2013-02-28 08:45:00,33.8,31.5,29.57,WSW,237,5.0,6.0,91,0.00,,OVC021,0.01,125.00,VWS V14.01,2013-02-28 13:45:00,
2013-02-28 08:48:00,33.8,31.5,29.57,SW,235,3.0,5.0,91,0.00,,OVC021,0.01,67.00,VWS V14.01,2013-02-28 13:48:00,
2013-02-28 08:50:00,33.8,31.5,29.57,SW,234,3.0,5.0,91,0.00,,OVC021,0.01,67.00,VWS V14.01,2013-02-28 13:50:00,
2013-02-28 08:53:00,33.8,31.5,29.58,SW,220,3.0,6.0,91,0.00,,OVC021,0.01,60.00,VWS V14.01,2013-02-28 13:53:00,
2013-02-28 08:55:00,33.8,31.5,29.58,SW,220,3.0,6.0,91,0.00,,OVC021,0.01,60.00,VWS V14.01,2013-02-28 13:55:00,
2013-02-28 08:58:00,33.9,31.6,29.57,SW,235,3.0,4.0,91,0.00,,OVC021,0.01,40.00,VWS V14.01,2013-02-28 13:58:00,
2013-02-28 09:00:00,33.9,31.6,29.57,SW,235,3.0,4.0,91,0.00,,OVC021,0.01,40.00,VWS V14.01,2013-02-28 14:00:00,
2013-02-28 09:03:00,33.9,31.6,29.57,SW,234,0.0,4.0,91,0.00,,OVC021,0.01,53.00,VWS V14.01,2013-02-28 14:03:00,
2013-02-28 09:05:00,33.9,31.6,29.57,SW,234,0.0,4.0,91,0.00,,OVC021,0.01,53.00,VWS V14.01,2013-02-28 14:05:00,
2013-02-28 09:08:00,33.9,31.6,29.57,SW,235,4.0,5.0,91,0.00,,OVC021,0.01,77.00,VWS V14.01,2013-02-28 14:08:00,
2013-02-28 09:10:00,33.9,31.6,29.58,SW,235,5.0,5.0,91,0.00,,OVC021,0.01,63.00,VWS V14.01,2013-02-28 14:10:00,
2013-02-28 09:13:00,34.1,31.8,29.57,WSW,239,0.0,1.0,91,0.00,,OVC021,0.01,142.00,VWS V14.01,2013-02-28 14:13:00,
2013-02-28 09:15:00,34.1,31.8,29.57,WSW,239,0.0,5.0,91,0.00,,OVC021,0.01,151.00,VWS V14.01,2013-02-28 14:15:00,
2013-02-28 09:18:00,34.2,31.9,29.57,WSW,240,3.0,4.0,91,0.00,,OVC021,0.01,134.00,VWS V14.01,2013-02-28 14:18:00,
2013-02-28 09:20:00,34.2,31.9,29.57,WSW,240,4.0,4.0,91,0.00,,OVC021,0.01,116.00,VWS V14.01,2013-02-28 14:20:00,
2013-02-28 09:23:00,34.4,32.0,29.57,WSW,240,0.0,1.0,91,0.00,,OVC021,0.01,151.00,VWS V14.01,2013-02-28 14:23:00,
2013-02-28 09:25:00,34.3,32.0,29.57,WSW,239,0.0,4.0,91,0.00,,OVC021,0.01,153.00,VWS V14.01,2013-02-28 14:25:00,
2013-02-28 09:29:00,34.6,32.2,29.59,WSW,239,1.0,5.0,91,0.00,,OVC021,0.01,160.00,VWS V14.01,2013-02-28 14:29:00,
2013-02-28 09:30:00,34.6,32.2,29.58,WSW,239,4.0,4.0,91,0.00,,OVC021,0.01,156.00,VWS V14.01,2013-02-28 14:30:00,
2013-02-28 09:34:00,34.6,32.0,29.58,SW,216,2.0,5.0,90,0.00,,OVC021,0.01,253.00,VWS V14.01,2013-02-28 14:34:00,
2013-02-28 09:35:00,34.6,32.0,29.57,SW,221,4.0,6.0,90,0.00,,OVC021,0.01,199.00,VWS V14.01,2013-02-28 14:35:00,
2013-02-28 09:39:00,34.7,32.1,29.57,SSW,204,0.0,2.0,90,0.00,,OVC021,0.01,327.00,VWS V14.01,2013-02-28 14:39:00,
2013-02-28 09:40:00,34.7,32.1,29.58,SSW,204,1.0,6.0,90,0.00,,OVC021,0.01,338.00,VWS V14.01,2013-02-28 14:40:00,
2013-02-28 09:44:00,35.2,32.6,29.57,SSW,207,3.0,3.0,90,0.00,,OVC021,0.01,373.00,VWS V14.01,2013-02-28 14:44:00,
2013-02-28 09:45:00,35.1,32.5,29.57,SSW,206,3.0,4.0,90,0.00,,OVC021,0.01,383.00,VWS V14.01,2013-02-28 14:45:00,
2013-02-28 09:49:00,35.6,33.0,29.56,WSW,244,3.0,5.0,90,0.00,,OVC021,0.01,274.00,VWS V14.01,2013-02-28 14:49:00,
2013-02-28 09:50:00,35.5,32.9,29.57,SSW,207,0.0,4.0,90,0.00,,OVC021,0.01,264.00,VWS V14.01,2013-02-28 14:50:00,
2013-02-28 09:54:00,35.7,32.8,29.56,WSW,252,0.0,5.0,89,0.00,,OVC021,0.01,229.00,VWS V14.01,2013-02-28 14:54:00,
2013-02-28 09:55:00,35.7,32.8,29.56,West,280,2.0,7.0,89,0.00,,OVC021,0.01,225.00,VWS V14.01,2013-02-28 14:55:00,
2013-02-28 09:59:00,35.9,33.0,29.56,WNW,292,3.0,5.0,89,0.00,,OVC021,0.01,258.00,VWS V14.01,2013-02-28 14:59:00,
2013-02-28 10:00:00,35.9,33.0,29.56,WNW,282,3.0,5.0,89,0.00,,OVC021,0.01,237.00,VWS V14.01,2013-02-28 15:00:00,
2013-02-28 10:04:00,36.1,33.2,29.56,WSW,253,1.0,6.0,89,0.00,,OVC021,0.01,253.00,VWS V14.01,2013-02-28 15:04:00,
2013-02-28 10:05:00,36.1,33.2,29.57,West,273,6.0,6.0,89,0.00,,OVC021,0.01,262.00,VWS V14.01,2013-02-28 15:05:00,
2013-02-28 10:09:00,36.2,33.3,29.56,SSW,209,5.0,5.0,89,0.00,,OVC021,0.01,288.00,VWS V14.01,2013-02-28 15:09:00,
2013-02-28 10:10:00,36.2,33.3,29.56,SW,220,4.0,6.0,89,0.00,,OVC021,0.01,295.00,VWS V14.01,2013-02-28 15:10:00,
2013-02-28 10:15:00,36.4,33.5,29.55,WSW,246,1.0,6.0,89,0.00,,OVC021,0.01,251.00,VWS V14.01,2013-02-28 15:15:00,
2013-02-28 10:20:00,36.5,33.3,29.55,WSW,247,0.0,2.0,88,0.00,,OVC021,0.01,206.00,VWS V14.01,2013-02-28 15:20:00,
2013-02-28 10:25:00,36.7,33.5,29.55,WSW,247,0.0,1.0,88,0.00,,OVC021,0.01,267.00,VWS V14.01,2013-02-28 15:25:00,
2013-02-28 10:30:00,37.0,33.8,29.56,WSW,246,1.0,1.0,88,0.00,,OVC021,0.01,251.00,VWS V14.01,2013-02-28 15:30:00,
2013-02-28 10:35:00,37.2,33.7,29.56,West,269,5.0,7.0,87,0.00,,OVC021,0.01,209.00,VWS V14.01,2013-02-28 15:35:00,
2013-02-28 10:40:00,37.1,33.6,29.56,WSW,242,2.0,4.0,87,0.00,,OVC021,0.01,250.00,VWS V14.01,2013-02-28 15:40:00,
2013-02-28 10:45:00,37.3,33.8,29.55,West,269,2.0,4.0,87,0.00,,OVC021,0.01,244.00,VWS V14.01,2013-02-28 15:45:00,
2013-02-28 10:50:00,37.4,33.9,29.55,WSW,250,2.0,5.0,87,0.00,,OVC021,0.01,236.00,VWS V14.01,2013-02-28 15:50:00,
2013-02-28 10:55:00,37.4,33.9,29.55,WSW,249,2.0,6.0,87,0.00,,OVC021,0.01,269.00,VWS V14.01,2013-02-28 15:55:00,
2013-02-28 10:56:00,37.6,34.1,29.55,WSW,251,0.0,4.0,87,0.00,,OVC021,0.01,325.00,VWS V14.01,2013-02-28 15:56:00,
2013-02-28 11:00:00,37.7,34.2,29.56,WSW,250,2.0,4.0,87,0.00,,OVC021,0.01,309.00,VWS V14.01,2013-02-28 16:00:00,
2013-02-28 11:01:00,37.9,34.4,29.55,WSW,252,1.0,6.0,87,0.00,,OVC021,0.01,283.00,VWS V14.01,2013-02-28 16:01:00,
2013-02-28 11:05:00,38.0,34.5,29.55,WSW,252,0.0,6.0,87,0.00,,OVC021,0.01,318.00,VWS V14.01,2013-02-28 16:05:00,
2013-02-28 11:06:00,38.0,34.2,29.55,West,274,3.0,6.0,86,0.00,,OVC021,0.01,279.00,VWS V14.01,2013-02-28 16:06:00,
2013-02-28 11:10:00,38.0,34.2,29.55,West,275,2.0,6.0,86,0.00,,OVC021,0.01,265.00,VWS V14.01,2013-02-28 16:10:00,
2013-02-28 11:11:00,38.0,33.9,29.55,SW,234,5.0,7.0,85,0.00,,OVC021,0.01,257.00,VWS V14.01,2013-02-28 16:11:00,
2013-02-28 11:15:00,38.1,34.3,29.55,SW,233,1.0,7.0,86,0.00,,OVC021,0.01,265.00,VWS V14.01,2013-02-28 16:15:00,
2013-02-28 11:16:00,38.3,34.2,29.55,SW,232,5.0,5.0,85,0.00,,OVC021,0.01,260.00,VWS V14.01,2013-02-28 16:16:00,
2013-02-28 11:20:00,38.3,34.2,29.55,SW,232,2.0,5.0,85,0.00,,OVC021,0.01,262.00,VWS V14.01,2013-02-28 16:20:00,
2013-02-28 11:21:00,38.4,34.3,29.55,West,263,4.0,8.0,85,0.00,,OVC021,0.01,274.00,VWS V14.01,2013-02-28 16:21:00,
2013-02-28 11:25:00,38.4,34.0,29.55,West,265,2.0,8.0,84,0.00,,OVC021,0.01,274.00,VWS V14.01,2013-02-28 16:25:00,
2013-02-28 11:26:00,38.4,34.3,29.55,West,265,5.0,5.0,85,0.00,,OVC021,0.01,248.00,VWS V14.01,2013-02-28 16:26:00,
2013-02-28 11:30:00,38.4,34.0,29.55,West,279,6.0,7.0,84,0.00,,OVC021,0.01,253.00,VWS V14.01,2013-02-28 16:30:00,
2013-02-28 11:31:00,38.6,34.5,29.56,WSW,246,1.0,9.0,85,0.00,,OVC021,0.01,272.00,VWS V14.01,2013-02-28 16:31:00,
2013-02-28 11:35:00,38.7,34.6,29.56,WNW,284,2.0,9.0,85,0.00,,OVC021,0.01,288.00,VWS V14.01,2013-02-28 16:35:00,
2013-02-28 11:36:00,38.9,34.5,29.55,WSW,257,5.0,6.0,84,0.00,,OVC021,0.01,290.00,VWS V14.01,2013-02-28 16:36:00,
2013-02-28 11:40:00,38.8,34.4,29.55,WSW,258,5.0,7.0,84,0.00,,OVC021,0.01,278.00,VWS V14.01,2013-02-28 16:40:00,
2013-02-28 11:42:00,38.7,34.3,29.55,West,275,4.0,7.0,84,0.00,,OVC021,0.01,278.00,VWS V14.01,2013-02-28 16:42:00,
2013-02-28 11:45:00,38.6,33.9,29.55,West,274,2.0,7.0,83,0.00,,OVC021,0.01,269.00,VWS V14.01,2013-02-28 16:45:00,
2013-02-28 11:47:00,38.7,34.3,29.55,WSW,244,4.0,6.0,84,0.00,,OVC021,0.01,257.00,VWS V14.01,2013-02-28 16:47:00,
2013-02-28 11:50:00,38.8,34.4,29.55,WSW,252,3.0,6.0,84,0.00,,OVC021,0.01,248.00,VWS V14.01,2013-02-28 16:50:00,
2013-02-28 11:52:00,38.8,34.1,29.54,WSW,253,1.0,5.0,83,0.00,,OVC021,0.01,278.00,VWS V14.01,2013-02-28 16:52:00,
2013-02-28 11:55:00,38.8,34.1,29.54,WSW,254,0.0,5.0,83,0.00,,OVC021,0.01,285.00,VWS V14.01,2013-02-28 16:55:00,
2013-02-28 11:57:00,38.9,34.2,29.55,WSW,254,0.0,3.0,83,0.00,,OVC021,0.01,297.00,VWS V14.01,2013-02-28 16:57:00,
2013-02-28 12:00:00,39.0,34.3,29.55,WSW,254,0.0,3.0,83,0.00,,OVC021,0.01,297.00,VWS V14.01,2013-02-28 17:00:00,
2013-02-28 12:02:00,39.3,34.6,29.53,WSW,253,0.0,1.0,83,0.00,,OVC021,0.01,281.00,VWS V14.01,2013-02-28 17:02:00,
2013-02-28 12:05:00,39.3,34.6,29.53,WSW,253,0.0,1.0,83,0.00,,OVC021,0.01,281.00,VWS V14.01,2013-02-28 17:05:00,
2013-02-28 12:07:00,39.7,35.0,29.53,WSW,253,3.0,3.0,83,0.00,,OVC021,0.01,320.00,VWS V14.01,2013-02-28 17:07:00,
2013-02-28 12:10:00,39.8,35.1,29.53,WSW,253,1.0,3.0,83,0.00,,OVC021,0.01,320.00,VWS V14.01,2013-02-28 17:10:00,
2013-02-28 12:13:00,40.0,35.0,29.53,WSW,252,1.0,4.0,82,0.00,,OVC021,0.01,548.00,VWS V14.01,2013-02-28 17:13:00,
2013-02-28 12:15:00,40.0,35.0,29.53,WSW,252,0.0,4.0,82,0.00,,OVC021,0.01,548.00,VWS V14.01,2013-02-28 17:15:00,
2013-02-28 12:18:00,40.4,35.0,29.53,WSW,248,2.0,5.0,81,0.00,,OVC021,0.01,316.00,VWS V14.01,2013-02-28 17:18:00,
2013-02-28 12:20:00,40.4,35.0,29.53,WSW,248,2.0,5.0,81,0.00,,OVC021,0.01,316.00,VWS V14.01,2013-02-28 17:20:00,
2013-02-28 12:23:00,40.4,35.0,29.54,West,259,4.0,4.0,81,0.00,,OVC021,0.01,295.00,VWS V14.01,2013-02-28 17:23:00,
2013-02-28 12:25:00,40.4,35.0,29.54,West,259,4.0,4.0,81,0.00,,OVC021,0.01,295.00,VWS V14.01,2013-02-28 17:25:00,
2013-02-28 12:28:00,40.3,34.9,29.53,WNW,286,2.0,4.0,81,0.00,,OVC021,0.01,262.00,VWS V14.01,2013-02-28 17:28:00,
2013-02-28 12:30:00,40.3,34.9,29.53,WNW,286,2.0,4.0,81,0.00,,OVC021,0.01,262.00,VWS V14.01,2013-02-28 17:30:00,
2013-02-28 12:33:00,40.4,35.0,29.52,WNW,286,2.0,3.0,81,0.00,,OVC021,0.01,253.00,VWS V14.01,2013-02-28 17:33:00,
2013-02-28 12:35:00,40.4,35.0,29.52,WNW,286,2.0,3.0,81,0.00,,OVC021,0.01,253.00,VWS V14.01,2013-02-28 17:35:00,
2013-02-28 12:38:00,40.4,34.7,29.52,WNW,286,3.0,4.0,80,0.00,,OVC021,0.01,287.00,VWS V14.01,2013-02-28 17:38:00,
2013-02-28 12:40:00,40.4,34.7,29.52,WNW,286,3.0,4.0,80,0.00,,OVC021,0.01,287.00,VWS V14.01,2013-02-28 17:40:00,
2013-02-28 12:43:00,40.4,35.0,29.52,WSW,248,1.0,5.0,81,0.00,,OVC021,0.01,320.00,VWS V14.01,2013-02-28 17:43:00,
2013-02-28 12:45:00,40.4,35.0,29.52,WSW,248,1.0,5.0,81,0.00,,OVC021,0.01,320.00,VWS V14.01,2013-02-28 17:45:00,
2013-02-28 12:48:00,40.6,34.9,29.51,West,264,5.0,5.0,80,0.00,,OVC021,0.01,334.00,VWS V14.01,2013-02-28 17:48:00,
2013-02-28 12:50:00,40.6,34.9,29.51,West,264,5.0,5.0,80,0.00,,OVC021,0.01,334.00,VWS V14.01,2013-02-28 17:50:00,
2013-02-28 12:53:00,40.8,35.1,29.51,WNW,289,4.0,5.0,80,0.00,,OVC021,0.01,285.00,VWS V14.01,2013-02-28 17:53:00,
2013-02-28 12:55:00,40.8,35.1,29.51,WNW,289,4.0,5.0,80,0.00,,OVC021,0.01,285.00,VWS V14.01,2013-02-28 17:55:00,
2013-02-28 12:58:00,40.7,35.0,29.51,WNW,282,1.0,5.0,80,0.00,,OVC021,0.01,295.00,VWS V14.01,2013-02-28 17:58:00,
2013-02-28 13:00:00,40.7,35.0,29.51,WNW,282,1.0,5.0,80,0.00,,OVC021,0.01,295.00,VWS V14.01,2013-02-28 18:00:00,
2013-02-28 13:03:00,41.0,35.3,29.51,SW,219,4.0,6.0,80,0.00,,OVC021,0.01,304.00,VWS V14.01,2013-02-28 18:03:00,
2013-02-28 13:05:00,41.0,35.3,29.51,SW,219,4.0,6.0,80,0.00,,OVC021,0.01,304.00,VWS V14.01,2013-02-28 18:05:00,
2013-02-28 13:08:00,41.5,35.2,29.50,NW,308,1.0,2.0,78,0.00,,OVC021,0.01,255.00,VWS V14.01,2013-02-28 18:08:00,
2013-02-28 13:10:00,41.5,35.2,29.50,NW,307,2.0,5.0,78,0.00,,OVC021,0.01,264.00,VWS V14.01,2013-02-28 18:10:00,
2013-02-28 13:13:00,41.7,35.4,29.50,North,11,1.0,2.0,78,0.00,,OVC021,0.01,211.00,VWS V14.01,2013-02-28 18:13:00,
2013-02-28 13:15:00,41.7,35.4,29.50,North,11,2.0,5.0,78,0.00,,OVC021,0.01,218.00,VWS V14.01,2013-02-28 18:15:00,
2013-02-28 13:18:00,42.0,35.7,29.50,North,360,0.0,1.0,78,0.00,,OVC021,0.01,178.00,VWS V14.01,2013-02-28 18:18:00,
2013-02-28 13:20:00,42.0,36.0,29.50,North,360,0.0,3.0,79,0.00,,OVC021,0.01,183.00,VWS V14.01,2013-02-28 18:20:00,
2013-02-28 13:24:00,42.5,35.8,29.50,West,262,5.0,6.0,77,0.00,,OVC021,0.01,174.00,VWS V14.01,2013-02-28 18:24:00,
2013-02-28 13:25:00,42.4,35.7,29.50,SW,219,3.0,6.0,77,0.00,,OVC021,0.01,172.00,VWS V14.01,2013-02-28 18:25:00,
2013-02-28 13:29:00,42.7,35.7,29.50,West,281,2.0,4.0,76,0.00,,OVC021,0.01,183.00,VWS V14.01,2013-02-28 18:29:00,
2013-02-28 13:30:00,42.7,35.7,29.50,West,281,3.0,6.0,76,0.00,,OVC021,0.01,185.00,VWS V14.01,2013-02-28 18:30:00,
2013-02-28 13:34:00,42.6,35.6,29.50,WNW,293,3.0,5.0,76,0.00,,OVC021,0.01,190.00,VWS V14.01,2013-02-28 18:34:00,
2013-02-28 13:35:00,42.6,35.6,29.50,WNW,303,3.0,5.0,76,0.00,,OVC021,0.01,190.00,VWS V14.01,2013-02-28 18:35:00,
2013-02-28 13:39:00,42.7,35.7,29.50,NNW,344,2.0,3.0,76,0.00,,OVC021,0.01,213.00,VWS V14.01,2013-02-28 18:39:00,
2013-02-28 13:40:00,42.7,35.7,29.50,NNW,344,2.0,5.0,76,0.00,,OVC021,0.01,207.00,VWS V14.01,2013-02-28 18:40:00,
2013-02-28 13:44:00,42.8,35.8,29.49,NW,325,1.0,1.0,76,0.00,,OVC021,0.01,213.00,VWS V14.01,2013-02-28 18:44:00,
2013-02-28 13:45:00,42.7,35.7,29.50,NW,325,0.0,4.0,76,0.00,,OVC021,0.01,225.00,VWS V14.01,2013-02-28 18:45:00,
2013-02-28 13:49:00,42.6,35.6,29.49,West,261,1.0,4.0,76,0.00,,OVC021,0.01,202.00,VWS V14.01,2013-02-28 18:49:00,
2013-02-28 13:50:00,42.8,35.4,29.50,West,261,2.0,7.0,75,0.00,,OVC021,0.01,199.00,VWS V14.01,2013-02-28 18:50:00,
2013-02-28 13:54:00,42.6,35.6,29.49,West,261,0.0,0.0,76,0.00,,OVC021,0.01,207.00,VWS V14.01,2013-02-28 18:54:00,
2013-02-28 13:55:00,42.6,35.6,29.49,West,261,0.0,4.0,76,0.00,,OVC021,0.01,204.00,VWS V14.01,2013-02-28 18:55:00,
2013-02-28 13:59:00,42.7,35.7,29.49,West,261,1.0,2.0,76,0.00,,OVC021,0.01,260.00,VWS V14.01,2013-02-28 18:59:00,
2013-02-28 14:00:00,42.7,35.7,29.49,West,261,0.0,3.0,76,0.00,,OVC021,0.01,257.00,VWS V14.01,2013-02-28 19:00:00,
2013-02-28 14:04:00,43.1,36.1,29.49,WNW,293,2.0,3.0,76,0.00,,OVC021,0.01,295.00,VWS V14.01,2013-02-28 19:04:00,
2013-02-28 14:05:00,42.9,35.9,29.49,West,261,1.0,2.0,76,0.00,,OVC021,0.01,287.00,VWS V14.01,2013-02-28 19:05:00,
2013-02-28 14:10:00,42.9,35.5,29.49,North,5,1.0,4.0,75,0.00,,OVC021,0.01,301.00,VWS V14.01,2013-02-28 19:10:00,
2013-02-28 14:15:00,43.0,36.0,29.49,North,5,2.0,2.0,76,0.00,,OVC021,0.01,292.00,VWS V14.01,2013-02-28 19:15:00,
2013-02-28 14:20:00,43.9,36.8,29.49,North,5,0.0,2.0,76,0.00,,OVC021,0.01,429.00,VWS V14.01,2013-02-28 19:20:00,
2013-02-28 14:25:00,45.4,37.3,29.48,WSW,250,1.0,2.0,73,0.00,,OVC021,0.01,346.00,VWS V14.01,2013-02-28 19:25:00,
2013-02-28 14:30:00,45.2,36.0,29.48,NW,324,1.0,5.0,70,0.00,,OVC021,0.01,158.00,VWS V14.01,2013-02-28 19:30:00,
2013-02-28 14:35:00,44.2,35.8,29.48,NW,306,2.0,3.0,72,0.00,,OVC021,0.01,146.00,VWS V14.01,2013-02-28 19:35:00,
2013-02-28 14:40:00,43.9,35.8,29.48,NW,306,2.0,2.0,73,0.00,,OVC021,0.01,118.00,VWS V14.01,2013-02-28 19:40:00,
2013-02-28 14:45:00,43.5,35.8,29.48,NW,306,0.0,2.0,74,0.00,,OVC021,0.01,149.00,VWS V14.01,2013-02-28 19:45:00,
2013-02-28 14:50:00,43.5,35.8,29.48,NW,306,0.0,0.0,74,0.00,,OVC021,0.01,146.00,VWS V14.01,2013-02-28 19:50:00,
2013-02-28 14:55:00,43.7,36.0,29.48,NW,306,2.0,2.0,74,0.00,,OVC021,0.01,149.00,VWS V14.01,2013-02-28 19:55:00,
2013-02-28 15:00:00,43.7,35.6,29.48,NW,323,3.0,5.0,73,0.00,,OVC021,0.01,162.00,VWS V14.01,2013-02-28 20:00:00,
2013-02-28 15:01:00,43.6,35.5,29.48,NNW,338,2.0,8.0,73,0.00,,OVC021,0.01,179.00,VWS V14.01,2013-02-28 20:01:00,
2013-02-28 15:05:00,43.6,35.5,29.48,NNW,347,2.0,8.0,73,0.00,,OVC021,0.01,179.00,VWS V14.01,2013-02-28 20:05:00,
2013-02-28 15:06:00,43.6,35.9,29.48,North,355,2.0,4.0,74,0.00,,OVC021,0.01,151.00,VWS V14.01,2013-02-28 20:06:00,
2013-02-28 15:10:00,43.5,35.4,29.48,NW,323,2.0,5.0,73,0.00,,OVC021,0.01,193.00,VWS V14.01,2013-02-28 20:10:00,
2013-02-28 15:11:00,43.5,35.8,29.48,NW,324,2.0,3.0,74,0.00,,OVC021,0.01,118.00,VWS V14.01,2013-02-28 20:11:00,
2013-02-28 15:15:00,43.5,35.4,29.48,NW,306,2.0,4.0,73,0.00,,OVC021,0.01,139.00,VWS V14.01,2013-02-28 20:15:00,
2013-02-28 15:16:00,43.6,35.5,29.48,WNW,282,5.0,5.0,73,0.00,,OVC021,0.01,134.00,VWS V14.01,2013-02-28 20:16:00,
2013-02-28 15:20:00,43.6,35.2,29.48,WNW,292,3.0,6.0,72,0.00,,OVC021,0.01,141.00,VWS V14.01,2013-02-28 20:20:00,
2013-02-28 15:21:00,43.6,35.2,29.47,NW,314,3.0,5.0,72,0.00,,OVC021,0.01,132.00,VWS V14.01,2013-02-28 20:21:00,
2013-02-28 15:25:00,43.6,35.2,29.47,NW,314,1.0,5.0,72,0.00,,OVC021,0.01,127.00,VWS V14.01,2013-02-28 20:25:00,
2013-02-28 15:26:00,43.7,35.3,29.47,NW,311,5.0,6.0,72,0.00,,OVC021,0.01,100.00,VWS V14.01,2013-02-28 20:26:00,
2013-02-28 15:30:00,43.7,35.3,29.47,NW,308,2.0,7.0,72,0.00,,OVC021,0.01,104.00,VWS V14.01,2013-02-28 20:30:00,
2013-02-28 15:31:00,43.6,35.2,29.47,NW,313,4.0,7.0,72,0.00,,OVC021,0.01,109.00,VWS V14.01,2013-02-28 20:31:00,
2013-02-28 15:35:00,43.6,35.2,29.47,NW,325,5.0,7.0,72,0.00,,OVC021,0.01,107.00,VWS V14.01,2013-02-28 20:35:00,
2013-02-28 15:36:00,43.6,35.2,29.47,NNW,327,5.0,7.0,72,0.00,,OVC021,0.01,135.00,VWS V14.01,2013-02-28 20:36:00,
2013-02-28 15:40:00,43.5,35.1,29.47,WNW,300,4.0,7.0,72,0.00,,OVC021,0.01,137.00,VWS V14.01,2013-02-28 20:40:00,
2013-02-28 15:42:00,43.6,35.2,29.47,WNW,302,4.0,6.0,72,0.00,,OVC021,0.01,118.00,VWS V14.01,2013-02-28 20:42:00,
2013-02-28 15:45:00,43.6,35.2,29.47,WNW,286,5.0,7.0,72,0.00,,OVC021,0.01,98.00,VWS V14.01,2013-02-28 20:45:00,
2013-02-28 15:47:00,43.7,35.3,29.47,NW,322,4.0,5.0,72,0.00,,OVC021,0.01,77.00,VWS V14.01,2013-02-28 20:47:00,
2013-02-28 15:50:00,43.7,35.3,29.47,NW,311,3.0,5.0,72,0.00,,OVC021,0.01,76.00,VWS V14.01,2013-02-28 20:50:00,
2013-02-28 15:52:00,43.5,35.1,29.47,NW,325,3.0,4.0,72,0.00,,OVC021,0.01,70.00,VWS V14.01,2013-02-28 20:52:00,
2013-02-28 15:55:00,43.5,35.1,29.47,NW,325,1.0,4.0,72,0.00,,OVC021,0.01,70.00,VWS V14.01,2013-02-28 20:55:00,
2013-02-28 15:57:00,43.5,35.1,29.47,NW,307,4.0,5.0,72,0.00,,OVC021,0.01,63.00,VWS V14.01,2013-02-28 20:57:00,
2013-02-28 16:00:00,43.5,35.1,29.47,NW,309,3.0,5.0,72,0.00,,OVC021,0.01,62.00,VWS V14.01,2013-02-28 21:00:00,
2013-02-28 16:02:00,43.5,35.4,29.47,NW,310,2.0,4.0,73,0.00,,OVC021,0.01,56.00,VWS V14.01,2013-02-28 21:02:00,
2013-02-28 16:05:00,43.5,35.4,29.47,NW,310,1.0,4.0,73,0.00,,OVC021,0.01,58.00,VWS V14.01,2013-02-28 21:05:00,
2013-02-28 16:07:00,43.4,35.3,29.47,NNW,343,2.0,4.0,73,0.00,,OVC021,0.01,47.00,VWS V14.01,2013-02-28 21:07:00,
2013-02-28 16:10:00,43.3,35.2,29.47,NNW,344,2.0,4.0,73,0.00,,OVC021,0.01,47.00,VWS V14.01,2013-02-28 21:10:00,
2013-02-28 16:12:00,43.2,35.1,29.47,NW,319,2.0,7.0,73,0.00,,OVC021,0.01,53.00,VWS V14.01,2013-02-28 21:12:00,
2013-02-28 16:15:00,43.2,35.1,29.47,NW,323,4.0,7.0,73,0.00,,OVC021,0.01,53.00,VWS V14.01,2013-02-28 21:15:00,
2013-02-28 16:17:00,43.2,35.1,29.47,NW,319,4.0,6.0,73,0.00,,OVC021,0.01,56.00,VWS V14.01,2013-02-28 21:17:00,
2013-02-28 16:20:00,43.2,35.1,29.47,NW,319,2.0,6.0,73,0.00,,OVC021,0.01,58.00,VWS V14.01,2013-02-28 21:20:00,
2013-02-28 16:22:00,43.1,35.0,29.47,NNW,338,3.0,5.0,73,0.00,,OVC021,0.01,46.00,VWS V14.01,2013-02-28 21:22:00,
2013-02-28 16:25:00,43.1,35.0,29.47,NNW,338,2.0,5.0,73,0.00,,OVC021,0.01,49.00,VWS V14.01,2013-02-28 21:25:00,
2013-02-28 16:28:00,43.0,35.0,29.47,NNW,338,1.0,3.0,73,0.00,,OVC021,0.01,46.00,VWS V14.01,2013-02-28 21:28:00,
2013-02-28 16:30:00,43.0,35.0,29.47,NNW,338,0.0,3.0,73,0.00,,OVC021,0.01,46.00,VWS V14.01,2013-02-28 21:30:00,
2013-02-28 16:33:00,42.8,34.8,29.47,NNW,333,3.0,5.0,73,0.00,,OVC021,0.01,39.00,VWS V14.01,2013-02-28 21:33:00,
2013-02-28 16:35:00,42.8,34.8,29.47,NNW,333,2.0,5.0,73,0.00,,OVC021,0.01,39.00,VWS V14.01,2013-02-28 21:35:00,
2013-02-28 16:38:00,42.7,34.7,29.47,NNW,333,2.0,3.0,73,0.00,,OVC021,0.01,47.00,VWS V14.01,2013-02-28 21:38:00,
2013-02-28 16:40:00,42.7,34.7,29.47,NNW,333,1.0,3.0,73,0.00,,OVC021,0.01,47.00,VWS V14.01,2013-02-28 21:40:00,
2013-02-28 16:43:00,42.6,34.9,29.47,NNW,333,2.0,5.0,74,0.00,,OVC021,0.01,39.00,VWS V14.01,2013-02-28 21:43:00,
2013-02-28 16:45:00,42.6,34.9,29.47,NNW,333,2.0,5.0,74,0.00,,OVC021,0.01,39.00,VWS V14.01,2013-02-28 21:45:00,
2013-02-28 16:48:00,42.6,34.9,29.47,NNW,332,1.0,3.0,74,0.00,,OVC021,0.01,37.00,VWS V14.01,2013-02-28 21:48:00,
2013-02-28 16:50:00,42.6,34.9,29.47,NNW,332,1.0,3.0,74,0.00,,OVC021,0.01,37.00,VWS V14.01,2013-02-28 21:50:00,
2013-02-28 16:53:00,42.5,34.8,29.48,NNW,333,3.0,4.0,74,0.00,,OVC021,0.01,40.00,VWS V14.01,2013-02-28 21:53:00,
2013-02-28 16:55:00,42.5,34.8,29.48,NNW,333,3.0,4.0,74,0.00,,OVC021,0.01,40.00,VWS V14.01,2013-02-28 21:55:00,
2013-02-28 16:58:00,42.6,34.9,29.48,NNW,333,2.0,4.0,74,0.00,,OVC021,0.01,46.00,VWS V14.01,2013-02-28 21:58:00,
2013-02-28 17:00:00,42.6,34.9,29.48,NNW,333,2.0,4.0,74,0.00,,OVC021,0.01,46.00,VWS V14.01,2013-02-28 22:00:00,
2013-02-28 17:03:00,42.7,34.7,29.48,NW,325,2.0,5.0,73,0.00,,OVC021,0.01,25.00,VWS V14.01,2013-02-28 22:03:00,
2013-02-28 17:05:00,42.7,34.7,29.48,NW,325,2.0,5.0,73,0.00,,OVC021,0.01,25.00,VWS V14.01,2013-02-28 22:05:00,
2013-02-28 17:08:00,42.6,34.9,29.48,NNW,329,3.0,6.0,74,0.00,,OVC021,0.01,14.00,VWS V14.01,2013-02-28 22:08:00,
2013-02-28 17:10:00,42.6,34.9,29.48,NNW,329,3.0,6.0,74,0.00,,OVC021,0.01,14.00,VWS V14.01,2013-02-28 22:10:00,
2013-02-28 17:13:00,42.3,34.6,29.48,NNW,329,2.0,3.0,74,0.00,,OVC021,0.01,14.00,VWS V14.01,2013-02-28 22:13:00,
2013-02-28 17:15:00,42.3,34.6,29.48,NNW,329,2.0,3.0,74,0.00,,OVC021,0.01,14.00,VWS V14.01,2013-02-28 22:15:00,
2013-02-28 17:18:00,42.1,34.8,29.48,NNW,329,2.0,3.0,75,0.00,,OVC021,0.01,11.00,VWS V14.01,2013-02-28 22:18:00,
2013-02-28 17:20:00,42.1,34.8,29.48,NNW,329,3.0,5.0,75,0.00,,OVC021,0.01,11.00,VWS V14.01,2013-02-28 22:20:00,
2013-02-28 17:23:00,41.9,34.6,29.48,NNW,329,2.0,2.0,75,0.00,,OVC021,0.01,7.00,VWS V14.01,2013-02-28 22:23:00,
2013-02-28 17:25:00,41.9,34.6,29.48,NNW,329,1.0,4.0,75,0.00,,OVC021,0.01,7.00,VWS V14.01,2013-02-28 22:25:00,
2013-02-28 17:28:00,41.7,34.4,29.48,NNW,329,2.0,2.0,75,0.00,,OVC021,0.01,0.00,VWS V14.01,2013-02-28 22:28:00,
2013-02-28 17:30:00,41.7,34.7,29.48,NNW,329,1.0,4.0,76,0.00,,OVC021,0.01,0.00,VWS V14.01,2013-02-28 22:30:00,
2013-02-28 17:33:00,41.5,34.5,29.48,NNW,329,1.0,2.0,76,0.00,,OVC021,0.01,0.00,VWS V14.01,2013-02-28 22:33:00,
2013-02-28 17:35:00,41.5,34.5,29.48,NNW,329,2.0,3.0,76,0.00,,OVC021,0.01,0.00,VWS V14.01,2013-02-28 22:35:00,
2013-02-28 17:39:00,41.3,34.3,29.48,NNW,329,0.0,2.0,76,0.00,,OVC021,0.01,0.00,VWS V14.01,2013-02-28 22:39:00,
2013-02-28 17:40:00,41.3,34.3,29.48,NNW,329,2.0,3.0,76,0.00,,OVC021,0.01,0.00,VWS V14.01,2013-02-28 22:40:00,
2013-02-28 17:44:00,41.1,34.5,29.48,NNW,329,2.0,2.0,77,0.00,,OVC021,0.01,0.00,VWS V14.01,2013-02-28 22:44:00,
2013-02-28 17:45:00,41.1,34.5,29.48,NNW,329,1.0,4.0,77,0.00,,OVC021,0.01,0.00,VWS V14.01,2013-02-28 22:45:00,
2013-02-28 17:49:00,41.0,35.6,29.48,NNW,329,0.0,0.0,81,0.00,,OVC021,0.01,0.00,VWS V14.01,2013-02-28 22:49:00,
2013-02-28 17:50:00,41.0,35.6,29.48,NNW,329,0.0,2.0,81,0.00,,OVC021,0.01,0.00,VWS V14.01,2013-02-28 22:50:00,
2013-02-28 17:54:00,40.8,34.5,29.48,NNW,329,0.0,0.0,78,0.00,,OVC021,0.01,0.00,VWS V14.01,2013-02-28 22:54:00,
2013-02-28 17:55:00,40.8,34.2,29.48,NNW,329,0.0,0.0,77,0.00,,OVC021,0.01,0.00,VWS V14.01,2013-02-28 22:55:00,
2013-02-28 17:59:00,40.6,34.3,29.48,NNW,329,0.0,1.0,78,0.00,,OVC021,0.01,0.00,VWS V14.01,2013-02-28 22:59:00,
2013-02-28 18:00:00,40.6,34.3,29.48,NNW,329,0.0,0.0,78,0.00,,OVC021,0.01,0.00,VWS V14.01,2013-02-28 23:00:00,
2013-02-28 18:04:00,40.4,34.4,29.48,NNW,329,0.0,1.0,79,0.00,,OVC021,0.01,0.00,VWS V14.01,2013-02-28 23:04:00,
2013-02-28 18:05:00,40.5,34.2,29.48,NNW,329,0.0,1.0,78,0.00,,OVC021,0.01,0.00,VWS V14.01,2013-02-28 23:05:00,
2013-02-28 18:09:00,40.4,34.4,29.48,NNW,329,0.0,1.0,79,0.00,,OVC021,0.01,0.00,VWS V14.01,2013-02-28 23:09:00,
2013-02-28 18:10:00,40.4,34.4,29.48,NNW,329,1.0,3.0,79,0.00,,OVC021,0.01,0.00,VWS V14.01,2013-02-28 23:10:00,
2013-02-28 18:14:00,40.3,34.3,29.48,NNW,329,0.0,1.0,79,0.00,,OVC021,0.01,0.00,VWS V14.01,2013-02-28 23:14:00,
2013-02-28 18:15:00,40.3,34.3,29.48,NNW,329,1.0,2.0,79,0.00,,OVC021,0.01,0.00,VWS V14.01,2013-02-28 23:15:00,
2013-02-28 18:19:00,40.3,34.3,29.48,NNW,329,0.0,3.0,79,0.00,,OVC021,0.01,0.00,VWS V14.01,2013-02-28 23:19:00,
2013-02-28 18:20:00,40.3,34.3,29.48,NNW,329,1.0,3.0,79,0.00,,OVC021,0.01,0.00,VWS V14.01,2013-02-28 23:20:00,
2013-02-28 18:24:00,40.4,34.4,29.48,NNW,329,2.0,3.0,79,0.00,,OVC021,0.01,0.00,VWS V14.01,2013-02-28 23:24:00,
2013-02-28 18:25:00,40.3,34.3,29.48,NNW,329,2.0,3.0,79,0.00,,OVC021,0.01,0.00,VWS V14.01,2013-02-28 23:25:00,
2013-02-28 18:29:00,40.4,34.4,29.48,NNW,329,2.0,2.0,79,0.00,,OVC021,0.01,0.00,VWS V14.01,2013-02-28 23:29:00,
2013-02-28 18:30:00,40.4,34.4,29.48,NNW,329,0.0,3.0,79,0.00,,OVC021,0.01,0.00,VWS V14.01,2013-02-28 23:30:00,
2013-02-28 18:34:00,40.4,34.4,29.48,NNW,329,4.0,4.0,79,0.00,,OVC021,0.01,0.00,VWS V14.01,2013-02-28 23:34:00,
2013-02-28 18:35:00,40.4,34.4,29.48,NNW,329,2.0,5.0,79,0.00,,OVC021,0.01,0.00,VWS V14.01,2013-02-28 23:35:00,
2013-02-28 18:40:00,40.4,34.4,29.48,NNW,329,1.0,3.0,79,0.00,,OVC021,0.01,0.00,VWS V14.01,2013-02-28 23:40:00,
2013-02-28 18:45:00,40.4,34.4,29.48,NNW,329,0.0,6.0,79,0.00,,OVC021,0.01,0.00,VWS V14.01,2013-02-28 23:45:00,
2013-02-28 18:50:00,40.4,34.4,29.48,WNW,298,2.0,3.0,79,0.00,,OVC021,0.01,0.00,VWS V14.01,2013-02-28 23:50:00,
2013-02-28 18:55:00,40.3,34.3,29.48,WNW,298,0.0,3.0,79,0.00,,OVC021,0.01,0.00,VWS V14.01,2013-02-28 23:55:00,
2013-02-28 19:00:00,40.2,34.2,29.48,WNW,297,1.0,3.0,79,0.00,,OVC021,0.01,0.00,VWS V14.01,2013-03-01 00:00:00,
2013-02-28 19:05:00,40.1,34.1,29.48,WNW,297,0.0,3.0,79,0.00,,OVC021,0.01,0.00,VWS V14.01,2013-03-01 00:05:00,
2013-02-28 19:10:00,39.9,34.2,29.48,NW,313,1.0,6.0,80,0.00,,OVC021,0.01,0.00,VWS V14.01,2013-03-01 00:10:00,
2013-02-28 19:15:00,39.7,34.0,29.48,NW,313,3.0,4.0,80,0.00,,OVC021,0.01,0.00,VWS V14.01,2013-03-01 00:15:00,
2013-02-28 19:20:00,39.6,34.0,29.48,NW,313,2.0,4.0,80,0.00,,OVC021,0.01,0.00,VWS V14.01,2013-03-01 00:20:00,
2013-02-28 19:25:00,39.4,34.1,29.48,NW,313,1.0,2.0,81,0.00,,OVC021,0.01,0.00,VWS V14.01,2013-03-01 00:25:00,
2013-02-28 19:30:00,39.1,33.8,29.48,NW,313,3.0,3.0,81,0.00,,OVC021,0.01,0.00,VWS V14.01,2013-03-01 00:30:00,
2013-02-28 19:35:00,38.8,33.5,29.48,NW,313,0.0,3.0,81,0.00,,OVC021,0.01,0.00,VWS V14.01,2013-03-01 00:35:00,
2013-02-28 19:40:00,38.7,33.7,29.48,NW,313,0.0,3.0,82,0.00,,OVC021,0.01,0.00,VWS V14.01,2013-03-01 00:40:00,
2013-02-28 19:45:00,38.4,33.7,29.47,NW,313,0.0,2.0,83,0.00,,OVC021,0.01,0.00,VWS V14.01,2013-03-01 00:45:00,
2013-02-28 19:50:00,38.1,33.4,29.48,NW,313,2.0,2.0,83,0.00,,OVC021,0.01,0.00,VWS V14.01,2013-03-01 00:50:00,
2013-02-28 19:55:00,37.8,33.4,29.48,NW,313,0.0,2.0,84,0.00,,OVC021,0.01,0.00,VWS V14.01,2013-03-01 00:55:00,
2013-02-28 20:00:00,37.5,33.1,29.48,NW,313,0.0,1.0,84,0.00,,OVC021,0.01,0.00,VWS V14.01,2013-03-01 01:00:00,
2013-02-28 20:05:00,37.0,32.9,29.48,NW,313,0.0,0.0,85,0.00,,OVC021,0.01,0.00,VWS V14.01,2013-03-01 01:05:00,
2013-02-28 20:10:00,36.7,32.6,29.48,NW,313,0.0,0.0,85,0.00,,OVC021,0.01,0.00,VWS V14.01,2013-03-01 01:10:00,
2013-02-28 20:15:00,36.5,32.4,29.48,NW,313,0.0,0.0,85,0.00,,OVC021,0.01,0.00,VWS V14.01,2013-03-01 01:15:00,
2013-02-28 20:20:00,36.4,32.6,29.48,NW,313,0.0,1.0,86,0.00,,OVC021,0.01,0.00,VWS V14.01,2013-03-01 01:20:00,
2013-02-28 20:25:00,36.2,32.4,29.48,NW,313,0.0,0.0,86,0.00,,OVC021,0.01,0.00,VWS V14.01,2013-03-01 01:25:00,
2013-02-28 20:30:00,36.0,32.5,29.48,NW,313,1.0,1.0,87,0.00,,OVC021,0.01,0.00,VWS V14.01,2013-03-01 01:30:00,
2013-02-28 20:35:00,35.9,32.4,29.48,NW,313,0.0,1.0,87,0.00,,OVC021,0.01,0.00,VWS V14.01,2013-03-01 01:35:00,
2013-02-28 20:40:00,35.8,32.6,29.48,NW,313,0.0,1.0,88,0.00,,OVC021,0.01,0.00,VWS V14.01,2013-03-01 01:40:00,
2013-02-28 20:45:00,35.8,32.6,29.48,NW,313,0.0,1.0,88,0.00,,OVC021,0.01,0.00,VWS V14.01,2013-03-01 01:45:00,
2013-02-28 20:50:00,35.9,32.7,29.48,NW,313,0.0,0.0,88,0.00,,OVC021,0.01,0.00,VWS V14.01,2013-03-01 01:50:00,
2013-02-28 20:55:00,35.9,32.7,29.48,NW,313,0.0,0.0,88,0.00,,OVC021,0.01,0.00,VWS V14.01,2013-03-01 01:55:00,
2013-02-28 21:00:00,36.0,33.1,29.48,NW,313,0.0,0.0,89,0.00,,OVC021,0.01,0.00,VWS V14.01,2013-03-01 02:00:00,
2013-02-28 21:05:00,36.0,33.1,29.48,NW,313,0.0,0.0,89,0.00,,OVC021,0.01,0.00,VWS V14.01,2013-03-01 02:05:00,
2013-02-28 21:10:00,36.0,32.8,29.48,NW,313,0.0,0.0,88,0.00,,OVC021,0.01,0.00,VWS V14.01,2013-03-01 02:10:00,
2013-02-28 21:15:00,35.9,32.7,29.48,NW,313,0.0,0.0,88,0.00,,OVC021,0.01,0.00,VWS V14.01,2013-03-01 02:15:00,
2013-02-28 21:20:00,35.8,32.9,29.48,NW,313,0.0,0.0,89,0.00,,OVC021,0.01,0.00,VWS V14.01,2013-03-01 02:20:00,
2013-02-28 21:25:00,35.9,33.0,29.48,NW,313,0.0,0.0,89,0.00,,OVC021,0.01,0.00,VWS V14.01,2013-03-01 02:25:00,
2013-02-28 21:30:00,35.9,33.0,29.48,NW,313,0.0,0.0,89,0.00,,OVC021,0.01,0.00,VWS V14.01,2013-03-01 02:30:00,
2013-02-28 21:35:00,35.9,33.0,29.48,NW,313,0.0,0.0,89,0.00,,OVC021,0.01,0.00,VWS V14.01,2013-03-01 02:35:00,
2013-02-28 21:40:00,35.8,32.9,29.48,NW,313,0.0,0.0,89,0.00,,OVC021,0.01,0.00,VWS V14.01,2013-03-01 02:40:00,
2013-02-28 21:45:00,35.7,32.8,29.48,NW,313,0.0,0.0,89,0.00,,OVC021,0.01,0.00,VWS V14.01,2013-03-01 02:45:00,
2013-02-28 21:50:00,35.7,32.8,29.48,NW,313,0.0,0.0,89,0.00,,OVC021,0.01,0.00,VWS V14.01,2013-03-01 02:50:00,
2013-02-28 21:55:00,35.7,32.8,29.47,NW,313,0.0,2.0,89,0.00,,OVC021,0.01,0.00,VWS V14.01,2013-03-01 02:55:00,
2013-02-28 22:00:00,35.6,33.0,29.47,NW,313,0.0,1.0,90,0.00,,OVC021,0.01,0.00,VWS V14.01,2013-03-01 03:00:00,
2013-02-28 22:05:00,36.0,33.4,29.47,NW,313,0.0,2.0,90,0.00,,OVC021,0.01,0.00,VWS V14.01,2013-03-01 03:05:00,
2013-02-28 22:10:00,36.1,33.5,29.47,NW,313,0.0,1.0,90,0.00,,OVC021,0.01,0.00,VWS V14.01,2013-03-01 03:10:00,
2013-02-28 22:15:00,36.2,33.6,29.47,NW,313,0.0,2.0,90,0.00,,OVC021,0.01,0.00,VWS V14.01,2013-03-01 03:15:00,
2013-02-28 22:20:00,36.3,33.7,29.47,NW,313,0.0,2.0,90,0.00,,OVC021,0.01,0.00,VWS V14.01,2013-03-01 03:20:00,
2013-02-28 22:25:00,36.4,33.5,29.47,NW,313,0.0,0.0,89,0.00,,OVC021,0.01,0.00,VWS V14.01,2013-03-01 03:25:00,
2013-02-28 22:30:00,36.3,33.4,29.47,NW,313,0.0,0.0,89,0.00,,OVC021,0.01,0.00,VWS V14.01,2013-03-01 03:30:00,
2013-02-28 22:35:00,36.2,33.3,29.47,NW,313,0.0,0.0,89,0.00,,OVC021,0.01,0.00,VWS V14.01,2013-03-01 03:35:00,
2013-02-28 22:40:00,36.0,33.1,29.47,NW,313,0.0,0.0,89,0.00,,OVC021,0.01,0.00,VWS V14.01,2013-03-01 03:40:00,
2013-02-28 22:45:00,35.8,32.9,29.47,NW,313,0.0,0.0,89,0.00,,OVC021,0.01,0.00,VWS V14.01,2013-03-01 03:45:00,
2013-02-28 22:50:00,35.7,32.8,29.47,NW,313,0.0,0.0,89,0.00,,OVC021,0.01,0.00,VWS V14.01,2013-03-01 03:50:00,
2013-02-28 22:55:00,35.6,32.7,29.47,NW,313,0.0,0.0,89,0.00,,OVC021,0.01,0.00,VWS V14.01,2013-03-01 03:55:00,
2013-02-28 23:00:00,35.6,33.0,29.47,NW,313,0.0,1.0,90,0.00,,OVC021,0.01,0.00,VWS V14.01,2013-03-01 04:00:00,
2013-02-28 23:05:00,35.7,33.1,29.47,NW,313,1.0,2.0,90,0.00,,OVC021,0.01,0.00,VWS V14.01,2013-03-01 04:05:00,
2013-02-28 23:10:00,35.7,33.1,29.47,NW,313,1.0,2.0,90,0.00,,OVC021,0.01,0.00,VWS V14.01,2013-03-01 04:10:00,
2013-02-28 23:15:00,35.7,33.1,29.47,NW,313,0.0,1.0,90,0.00,,OVC021,0.01,0.00,VWS V14.01,2013-03-01 04:15:00,
2013-02-28 23:20:00,35.8,33.2,29.47,NW,313,0.0,1.0,90,0.00,,OVC021,0.01,0.00,VWS V14.01,2013-03-01 04:20:00,
2013-02-28 23:25:00,35.9,33.3,29.47,NW,313,0.0,1.0,90,0.00,,OVC021,0.01,0.00,VWS V14.01,2013-03-01 04:25:00,
2013-02-28 23:30:00,35.9,33.3,29.47,NW,313,1.0,3.0,90,0.00,,OVC021,0.01,0.00,VWS V14.01,2013-03-01 04:30:00,
2013-02-28 23:35:00,35.9,33.3,29.47,NW,313,0.0,2.0,90,0.00,,OVC021,0.01,0.00,VWS V14.01,2013-03-01 04:35:00,
2013-02-28 23:40:00,36.0,33.4,29.47,NW,313,0.0,2.0,90,0.00,,OVC021,0.01,0.00,VWS V14.01,2013-03-01 04:40:00,
2013-02-28 23:45:00,36.1,33.5,29.47,NW,313,1.0,3.0,90,0.00,,OVC021,0.01,0.00,VWS V14.01,2013-03-01 04:45:00,
2013-02-28 23:50:00,36.3,33.7,29.47,NNW,348,3.0,5.0,90,0.00,,OVC021,0.01,0.00,VWS V14.01,2013-03-01 04:50:00,
2013-02-28 23:55:00,36.4,33.8,29.47,North,350,2.0,4.0,90,0.00,,OVC021,0.01,0.00,VWS V14.01,2013-03-01 04:55:00,